User: anonymous   Login
Location: Cosy Dell
(34.2789°N, 117.4537°W)
Time: 22:08:20
(UTC+00:00)
Language:

Cosmos 158 Rocket - Orbit

View from above orbital plane
View from above orbital plane
View from above satellite
View from above satellite

Ground track
Ground track

The orbit data is extracted from the following two-line orbital elements,

1  2802U 67045B   20271.51055437  .00000125  00000-0  43803-4 0  9996
2  2802  74.0102  95.6933 0067209 222.6073 136.9860 14.43776965801913
Epoch (UTC): 27 September 2020 12:15:11
Eccentricity: 0.0067209
inclination: 74.0102°
perigee height: 698 km
apogee height: 794 km
right ascension of ascending node: 95.6933°
argument of perigee: 222.6073°
revolutions per day: 14.43776965
mean anomaly at epoch: 136.9860°
orbit number at epoch: 80191

The dashed part of the orbit path shows where the satellite is in the earth's shadow,  

DLR